Showing default

OPS 0100 (TRANSIT 15), 2754

Orbit data source: Space-Track

OPS 0100 (TRANSIT 15), 2754 is a payload satellite owned by USN NAVAIR (US) in LEO that was launched on Fri, 14 Apr 1967 UTC via an SCOUT A launch vehicle from the Air Force Western Test Range (AFWTR). Payload-class satellites include a variety of spacecraft equipped with specific instruments for various scientific and technological missions. These include communications satellites like Starlink; space stations such as the ISS; scientific satellites like the Hubble; Earth observation satellites from companies like Planet Labs, Umbra, and HawkEye 360; GPS; miniature CubeSats for education and research; and military/defense satellites.

Loading next visibility...
Identifier
2754, 1967-034A
Orbit
LEO
Country
Flag of USUS
Related business
Manufacturer
APL
Mission
Spacecraft
Bus & Motor
TRANSIT 5, Unknown motor
Mass
~50 kg wet, ~50 kg dry
Launch date (UTC)
1967-04-14 (59 years ago)
Launch vehicle
SCOUT A
Launch site
Air Force Western Test Range (AFWTR)
Object type
Payload
Rocket body
Debris
Shape & HBR
Unknown
Radar Cross Section
Large (>1 m²)

Expand to show TLE details & history
Last TLE update: 20 hours ago

TLE from 20 hours ago
0 OPS 0100 (TRANSIT 15)
1 02754U 67034A   25340.89046131  .00000217  00000-0  29157-3 0  9991
2 02754  90.2276  30.6481 0019004 354.7399 179.4568 13.57355120900025
Epoch: 2025-12-06T21:22Z
TLE epoch observation values (Epoch: 2025-12-06T21:22:15.857Z)
Latitude
5.72014°
Longitude
174.193°
Altitude
1,061.834 km
Speed
7.314 km/s
True Right ascension
14h 02m 40s
True Declination
5° 41' 15"
Sunlit
Object was in daylight at epoch
Visualization orbit readout
Latitude
Unknown
Longitude
Unknown
Altitude
Unknown
Speed
Unknown
Apparent Right ascension
Unknown
Apparent Declination
Unknown
Sunlit
N/A
Visualization observer readout
Local Sidereal Time
15:52:06
Azimuth
Unknown
Elevation
Unknown
Doppler factor
Unknown
Orbital elements
Apogee altitude
1,056.461 km
Perigee altitude
1,028.257 km
Semi-major axis
7,420.496 km
Eccentricity
0.0019
Inclination
90.2276°
RAAN
30.6481°
Arg. of periapsis
354.7399°
True anomaly
179.45886°
Mean anomaly
179.4568°
Eccentric anomaly
179.45783°
Mean motion
3.39542 °/min
Orbital period
106.03 mins
BSTAR
0.00029157
Loading maneuver chart data...
Computing Atmospheric mass density...
Loading historical data...
Loading historical data...
Loading historical data...
Loading historical data...
Loading historical data...
Loading historical data...
Loading historical data...

Documentation

Showing up to 5 results
|